Погода в Волочиске

Украина / Хмельницкая область     49°32′17″N   26°12′02″E
темп.,
°C
ветер,
м/с
пор.,
м/с
влажн.,
%
обл.,
%
осадки,
мм/ч
давл.,
гПа
погр.,
м
5 августа, чт
чт500:00+15всв2292100 0.1 101513
03:00+16вюв2290100 0.1 101430
06:00+16ю3391100 0.0 101338
09:00+20ююв2476100 0.0 1012225
12:00+26ююв45496 0.1 10101393
15:00+28юв554295 0.1 10081869
18:00+26юв585897 0.0 1005574
21:00+20ю61393100 12.2 1005529
6 августа, пт
пт600:00+19ююв51096100 1.9 1003332
03:00+17ю4119554 2.3 1002249
06:00+16ю489564 0.0 1002189
09:00+19з6107835 0.0 1003730
12:00+23з576054 0.0 10031433
15:00+20з4679100 2.0 1004522
18:00+20зсз578041 1.7 1005772
21:00+15зсз511905 1.8 1007462
7 августа, сб
сб700:00+14з5109658 0.0 1008418
03:00+12зсз410975 0.0 1010302
06:00+11з22950 0.0 101142
09:00+16з35750 0.0 1012426
12:00+21зсз455148 0.0 10121336
15:00+24зсз354850 0.0 10121959
18:00+22сз236258 0.0 1012283
21:00+18ююз11715 0.0 101411
8 августа, вс
вс800:00+17ю22751 0.0 101515
03:00+15ю338011 0.0 101533
06:00+15ююв35835 0.0 101573
09:00+21ююв58665 0.0 1015355
12:00+25ю78512 0.0 1015978
15:00+27ююв67435 0.0 10151163
18:00+27ююв57503 0.0 1014760
21:00+20ююв410726 0.0 1015164
9 августа, пн
пн900:00+20ююв51367100 0.0 1016257
03:00+19ююв5146826 0.0 1015251
06:00+17юз467343 0.0 1016117
09:00+20вюв3572100 0.1 1016158
12:00+22з116891 0.1 101719
15:00+27с335427 0.2 10171167
18:00+22ссз568120 1.1 1018593
21:00+19ссз59905 1.8 1019279